Location: Dammartin
(48.9032°N, 1.6195°E)
Time: 21:18:51
(UTC+00:00)

YUBILEINY - Pass Details

Date: 09 December 2023
Orbit: 1479 x 1508 km, 82.5° (Epoch: 04 March)

Event Time Altitude Azimuth Distance (km) Brightness Sun altitude
Rises 18:07:03 0° 351° (N) 4,630 ? -20.4°
Reaches altitude 10° 18:10:29 10° 2° (N) 3,642 ? -20.9°
Enters shadow 18:17:23 30° 55° (NE) 2,410 ? -22.1°
